N430GW KLAL-KORL

Flight info

Callsign N430GW
Flight time N/A
Altitude 11000
Route MINEE MINEE6
Aircraft TBM9/L-SDFGRWY/S

Departure

Time 2026-05-04 20:02
Airport Lakeland Linder International Airport (KLAL)

Arrival

Time N/A
Airport Orlando Executive Airport (KORL)
Time Latitude Longitude Altitude Speed Heading
2026-05-04 19:50 27.99212 -82.01536 142 ft 0 kts 127°
2026-05-04 19:53 27.99213 -82.01536 142 ft 0 kts 127°
2026-05-04 19:56 27.99213 -82.01537 141 ft 0 kts 126°
2026-05-04 19:58 27.99172 -82.01524 142 ft 15 kts 186°
2026-05-04 19:58 27.99057 -82.01547 141 ft 19 kts 224°
2026-05-04 19:59 27.99038 -82.01693 141 ft 20 kts 272°
2026-05-04 19:59 27.99036 -82.01856 142 ft 22 kts 270°
2026-05-04 19:59 27.99037 -82.02035 140 ft 24 kts 268°
2026-05-04 19:59 27.99034 -82.02228 141 ft 25 kts 271°
2026-05-04 20:00 27.99039 -82.02428 141 ft 27 kts 277°
2026-05-04 20:00 27.99038 -82.02640 140 ft 28 kts 269°
2026-05-04 20:00 27.99038 -82.02863 139 ft 29 kts 269°
2026-05-04 20:00 27.99035 -82.03101 136 ft 31 kts 272°
2026-05-04 20:01 27.99033 -82.03322 136 ft 16 kts 247°
2026-05-04 20:01 27.98997 -82.03351 137 ft 6 kts 181°
2026-05-04 20:01 27.98925 -82.03293 138 ft 4 kts 88°
2026-05-04 20:01 27.98926 -82.03087 136 ft 59 kts 91°
2026-05-04 20:02 27.98917 -82.02401 214 ft 109 kts 86°
2026-05-04 20:02 27.98929 -82.01410 419 ft 145 kts 89°
2026-05-04 20:02 27.98913 -82.00157 798 ft 165 kts 92°
2026-05-04 20:02 27.98820 -81.98867 1371 ft 172 kts 94°
2026-05-04 20:03 27.98702 -81.97496 1701 ft 178 kts 96°
2026-05-04 20:03 27.98757 -81.96106 1962 ft 185 kts 74°
2026-05-04 20:03 27.99432 -81.94826 2216 ft 191 kts 56°
2026-05-04 20:03 28.00191 -81.93630 2711 ft 184 kts 57°
2026-05-04 20:04 28.00908 -81.92453 3190 ft 180 kts 58°
2026-05-04 20:04 28.01610 -81.91298 3673 ft 177 kts 58°
2026-05-04 20:04 28.02304 -81.90156 4170 ft 175 kts 58°
2026-05-04 20:04 28.02992 -81.89022 4668 ft 175 kts 58°
2026-05-04 20:05 28.03674 -81.87903 5161 ft 175 kts 58°
2026-05-04 20:05 28.04360 -81.86772 5647 ft 174 kts 58°
2026-05-04 20:05 28.05058 -81.85621 6045 ft 181 kts 58°
2026-05-04 20:05 28.05781 -81.84427 6420 ft 187 kts 58°
2026-05-04 20:06 28.06524 -81.83200 6777 ft 191 kts 57°
2026-05-04 20:06 28.07287 -81.81942 7136 ft 196 kts 57°
2026-05-04 20:06 28.08069 -81.80651 7498 ft 201 kts 57°
2026-05-04 20:06 28.08865 -81.79338 7866 ft 205 kts 56°
2026-05-04 20:07 28.09680 -81.77991 8236 ft 209 kts 55°
2026-05-04 20:07 28.10497 -81.76643 8606 ft 211 kts 55°
2026-05-04 20:07 28.11333 -81.75261 8955 ft 216 kts 55°
2026-05-04 20:07 28.12180 -81.73744 8836 ft 240 kts 62°
2026-05-04 20:08 28.13000 -81.72012 8635 ft 258 kts 62°
2026-05-04 20:08 28.13879 -81.70189 8394 ft 268 kts 62°
2026-05-04 20:08 28.14793 -81.68327 8142 ft 271 kts 61°
2026-05-04 20:08 28.15701 -81.66479 7890 ft 267 kts 61°
2026-05-04 20:09 28.16598 -81.64650 7632 ft 265 kts 61°
2026-05-04 20:09 28.17484 -81.62832 7386 ft 262 kts 62°
2026-05-04 20:09 28.18347 -81.61057 7143 ft 259 kts 62°
2026-05-04 20:09 28.19214 -81.59281 6909 ft 256 kts 62°
2026-05-04 20:10 28.20069 -81.57525 6673 ft 254 kts 62°
2026-05-04 20:10 28.20917 -81.55782 6428 ft 251 kts 63°
2026-05-04 20:10 28.21755 -81.54057 6185 ft 248 kts 63°
2026-05-04 20:10 28.22583 -81.52356 5945 ft 245 kts 63°
2026-05-04 20:11 28.23405 -81.50669 5716 ft 243 kts 62°
2026-05-04 20:11 28.24207 -81.49017 5490 ft 241 kts 63°
2026-05-04 20:11 28.25012 -81.47360 5265 ft 239 kts 62°
2026-05-04 20:11 28.25958 -81.45815 5013 ft 240 kts 48°
2026-05-04 20:12 28.27258 -81.44678 4965 ft 233 kts 32°
2026-05-04 20:12 28.28735 -81.43979 4968 ft 229 kts 21°
2026-05-04 20:12 28.30229 -81.43382 4971 ft 226 kts 22°
2026-05-04 20:12 28.31697 -81.42766 4972 ft 224 kts 22°
2026-05-04 20:13 28.33109 -81.42181 4973 ft 223 kts 22°
2026-05-04 20:13 28.34551 -81.41592 4970 ft 223 kts 22°
2026-05-04 20:13 28.36011 -81.40996 4971 ft 223 kts 22°
2026-05-04 20:13 28.37472 -81.40396 4970 ft 223 kts 22°
2026-05-04 20:14 28.38927 -81.39798 4974 ft 222 kts 22°
2026-05-04 20:14 28.40365 -81.39206 4968 ft 214 kts 22°
2026-05-04 20:14 28.41807 -81.39017 4958 ft 210 kts 353°
2026-05-04 20:14 28.43077 -81.39718 4566 ft 202 kts 318°
2026-05-04 20:15 28.43799 -81.41041 4168 ft 195 kts 295°
2026-05-04 20:15 28.44301 -81.42442 3789 ft 189 kts 294°